Location: ???????
(41.4395°N, 22.7745°E)
Time: 22:08:27
(UTC+00:00)

Daily predictions for brighter satellites

Satellite Brightness Start Highest point End
(mag) Time Altitude Azimuth Time Altitude Azimuth Time Altitude Azimuth
NOAA 12 4.1 15:24:09 10° SSE 15:29:27 73° ENE 15:34:46 10° N
Cosmos 1939 Rocket 3.2 15:25:41 10° SSE 15:29:38 46° ENE 15:33:34 10° N
Meteor PRIRODA 3.5 15:26:41 10° SSE 15:30:19 82° ENE 15:33:57 10° N
Cosmos 44 3.8 15:29:14 10° NW 15:33:52 60° WSW 15:38:14 10° SSE
Cosmos 2034 Rocket 4.1 15:29:31 10° S 15:35:41 88° WNW 15:41:52 10° N
Cosmos 540 Rocket 3.6 15:34:19 10° S 15:39:17 57° ESE 15:44:18 10° NNE
AQUARIUS 4.4 15:36:06 10° SE 15:40:24 48° ENE 15:44:44 10° N
COSMOS 2406 3.3 15:36:51 10° SSW 15:42:34 71° ESE 15:48:17 10° NNE
ARGOS 4.3 15:38:36 10° ESE 15:42:37 22° ENE 15:46:38 10° NNE
Cosmos 1602 4.0 15:39:32 10° N 15:43:15 45° E 15:46:59 10° SSE
Cosmos 1833 Rocket 2.8 15:38:37 10° SSW 15:44:14 86° WNW 15:49:55 10° NNE
ATLAS CENTAUR R/B 3.5 15:38:36 10° SW 15:50:22 71° NW 15:54:58 10° NE
COSMO-SKYMED 1 3.7 15:47:04 10° NE 15:50:36 24° E 15:54:08 10° SSE
Cosmos 1782 3.0 15:48:20 10° S 15:52:12 51° E 15:56:05 10° NNE
Cosmos 468 Rocket 4.5 15:48:29 10° SSW 15:53:34 63° WNW 15:58:44 10° NNE
Cosmos 1634 Rocket 4.0 15:50:13 10° S 15:56:26 64° E 16:02:41 10° NNE
CZ-2C R/B 3.7 15:56:38 10° S 15:58:20 12° SSE 16:00:01 10° SE
COSMOS 2455 2.9 15:52:40 10° SSW 15:58:39 71° ESE 16:04:40 10° NNE
Cosmos 1633 Rocket 4.0 15:55:34 10° NNE 15:59:12 25° ENE 16:02:49 10° SE
Cosmos 1898 Rocket 3.5 15:54:47 10° NNW 16:00:04 87° WSW 16:05:16 10° SSE
PAYLOAD B 4.3 15:55:52 10° SSE 16:01:18 55° ENE 16:06:46 10° N
CZ-2D R/B 3.3 16:00:00 10° SSE 16:03:42 51° ENE 16:07:26 10° N
CZ-2C R/B 4.2 15:59:08 10° S 16:03:52 45° W 16:08:28 10° NNW
CZ-4B R/B 3.5 15:59:13 10° SE 16:04:13 40° ENE 16:09:11 10° N
Cosmos 2026 Rocket 3.9 15:58:53 10° N 16:05:01 72° E 16:11:03 10° SSE
Cosmos 1340 Rocket 4.3 16:01:48 10° NNW 16:05:39 41° W 16:09:29 10° SSW
CZ-2C R/B 3.0 16:01:04 10° NNE 16:05:55 39° E 16:10:43 10° SSE
Cosmos 2195 Rocket 4.5 16:02:19 10° N 16:08:31 90° ENE 16:14:44 10° S
Cosmos 1151 Rocket 3.3 16:05:52 10° SSE 16:09:56 43° E 16:14:04 10° NNE
Meteor 2-14 Rocket 4.4 16:04:41 10° N 16:10:48 74° E 16:16:51 10° SSE
Cosmos 2360 4.2 16:05:24 10° NNW 16:11:11 88° WSW 16:16:53 10° SSE
Okean O Rocket 2.3 16:08:44 10° SE 16:12:41 33° ENE 16:16:40 10° N
Cosmos 1500 3.0 16:09:23 10° N 16:13:07 67° E 16:16:48 10° SSE
Lacrosse 5 rocket 3.0 16:12:09 10° NNW 16:14:39 16° NNE 16:14:59 16° NNE
NOSS 2-2 (C) 4.5 16:09:49 10° NNW 16:15:08 59° NE 16:22:34 10° SE
DEBRIS 4.3 16:15:39 10° SSE 16:17:08 15° ESE 16:17:08 15° ESE
USA 267 4.0 16:13:43 11° NE 16:19:31 44° NNW 16:25:37 10° W
Meteor 1-26 Rocket 4.4 16:14:30 10° S 16:20:27 84° W 16:26:32 10° N
H-2A R/B 1.9 16:16:21 10° SSE 16:21:32 75° ENE 16:26:35 10° N
GPS 2-04 Rocket1 4.1 16:20:54 10° WSW 16:24:38 34° S 16:27:26 16° SE
Cosmos 1666 Rocket 3.6 16:20:43 10° N 16:25:06 57° E 16:29:25 10° SSE
CZ-4C R/B 4.5 16:26:53 20° SE 16:26:53 20° SE 16:28:28 10° SSE
Cosmos 1328 Rocket 3.8 16:22:59 10° SSE 16:27:14 48° E 16:30:24 17° NNE
Cosmos 1470 Rocket 4.3 16:24:19 10° NNE 16:28:15 30° ENE 16:32:10 10° SE
PSLV R/B 4.3 16:28:41 10° S 16:32:17 57° W 16:35:58 10° NNW
USA 276 4.1 16:29:33 10° WNW 16:32:17 28° SW 16:35:01 10° SSE
Meteor 2-8 Rocket 4.5 16:26:27 10° S 16:32:26 56° E 16:38:27 10° NNE
Cosmos 841 Rocket 4.0 16:28:03 10° SSW 16:33:09 60° WNW 16:38:16 10° NNE
Meteor 2-21 Rocket 4.3 16:27:43 10° N 16:33:52 83° E 16:39:55 10° S
Landsat 5 3.6 16:32:08 29° NE 16:33:53 48° E 16:37:43 10° S
MOS 1-B 4.4 16:28:52 10° SSE 16:34:39 85° WSW 16:40:28 10° NNW
SKYMED 2 3.4 16:34:47 12° NNE 16:38:51 82° ESE 16:43:11 10° S
Cosmos 1937 Rocket 4.3 16:34:49 10° NNW 16:40:00 53° WSW 16:45:08 10° S
Cosmos 1666 2.4 16:38:52 10° N 16:42:35 83° E 16:46:18 10° S
Cosmos 1125 Rocket 4.5 16:38:26 10° N 16:41:53 27° NE 16:41:53 27° NE
SL-24 R/B - RUBIN 2 3.5 16:41:29 10° NW 16:45:58 85° SW 16:49:59 12° SSE
Cosmos 2322 Rocket 3.6 16:43:06 10° N 16:45:58 21° NNE 16:45:58 21° NNE
Cosmos 1697 Rocket 4.1 16:44:13 10° NW 16:49:24 38° WSW 16:54:32 10° S
Cosmos 372 Rocket 4.3 16:46:04 10° NNW 16:51:16 67° WSW 16:56:27 10° S
USA 234 3.5 16:45:13 10° SE 16:51:44 69° SW 16:58:16 10° NW
Cosmos 1980 Rocket 2.4 16:48:18 10° NNW 16:53:56 72° WSW 16:59:31 10° SSE
Meteor 1-14 Rocket 4.5 16:48:56 10° NNW 16:54:47 77° W 17:00:42 10° S
SL-08 RB Rocket 3.6 16:50:37 10° SSE 16:55:12 64° ENE 16:59:46 10° N
Cosmos 2369 4.5 16:50:13 10° NNW 16:55:48 54° WSW 17:01:19 10° S
Cosmos 1812 4.0 16:55:38 10° SSW 16:59:15 39° WNW 17:02:43 11° N
Meteor 1-5 Rocket 4.4 16:53:47 10° NNW 16:59:46 78° W 17:05:38 10° S
CZ-4C R/B 2.9 16:53:42 10° NNW 17:01:09 79° NE 17:09:43 10° SE
deb Chang Zheng 4 4.0 16:58:14 10° S 17:02:28 60° WSW 17:06:45 10° NNW
SL-16 R/B 2.9 17:00:13 10° N 17:04:16 35° NNE 17:04:16 35° NNE
Cosmos 2082 Rocket 3.3 17:00:45 10° SW 17:06:07 42° WNW 17:10:43 14° N
ISS -2.5 17:02:51 10° NW 17:04:59 36° NW 17:04:59 36° NW
Cosmos 1515 Rocket 3.6 17:04:56 10° S 17:08:52 66° SSE 17:08:52 66° SSE
Cosmos 44 Rocket 3.8 17:10:46 10° NNW 17:14:24 45° N 17:14:24 45° N
Cosmos 2278 4.1 17:14:17 10° NNW 17:19:53 62° WSW 17:25:28 10° S
ARGOS 3.9 17:17:12 10° S 17:22:29 52° W 17:27:46 10° NNW
Meteor 1-27 Rocket 3.8 17:19:45 10° S 17:24:11 56° SSE 17:24:11 56° SSE
COSMO-SKYMED 1 4.4 17:23:24 12° NNW 17:26:45 30° WNW 17:30:32 10° SW
DMSP B5D2-2 3.9 17:29:23 87° SW 17:29:23 87° SW 17:34:32 10° SSW
Cosmos 2298 Rocket 4.2 17:24:26 10° NNW 17:28:50 61° N 17:28:50 61° N
IRAS Rocket 4.3 17:31:07 62° SSE 17:31:07 62° SSE 17:35:46 10° S
Cosmos 2266 Rocket 4.1 17:25:44 10° N 17:32:09 79° W 17:38:32 10° S
Cosmos 921 Rocket 3.9 17:29:13 10° SW 17:32:43 45° W 17:32:43 45° W
ATLAS 5 CENTAUR R/B 4.0 17:31:09 10° NW 17:33:09 20° NNW 17:33:09 20° NNW
GEOS 3 Rocket 4.2 17:37:58 48° NNW 17:37:58 48° NNW 17:41:42 10° NNW
CZ-2C R/B 3.5 17:33:43 10° SW 17:35:26 19° SSW 17:35:26 19° SSW
Cosmos 1818 3.8 17:34:12 10° NW 17:38:50 64° NW 17:38:50 64° NW
Okean O Rocket 3.9 17:45:30 10° SSW 17:49:03 23° W 17:52:38 10° NW
Lacrosse 5 rocket 4.1 17:50:17 10° NW 17:50:36 12° NW 17:50:36 12° NW
Cosmos 2322 Rocket 4.4 18:26:28 10° NNW 18:27:49 18° NW 18:27:49 18° NW
